This is the latest recevied weather packets stored in our database for station/object W4KUS-10. If no packets are shown the sender has not sent any weather packets the latest 1 day(s).
| Time | Temp. | Humidity | Pressure | Rain* | Wind** | Luminosity | Snow |
|---|---|---|---|---|---|---|---|
| 1777998940 | 26.11° C | 50% | 1018 hPa | 0 mm | 1.79 m/s, 276° | - | - |
| 1777998640 | 26.11° C | 51% | 1018.1 hPa | 0 mm | 2.24 m/s, 264° | - | - |
| 1777998340 | 25.56° C | 53% | 1018.1 hPa | 0 mm | 1.34 m/s, 259° | - | - |
| 1777998040 | 25.56° C | 51% | 1018.2 hPa | 0 mm | 2.24 m/s, 261° | - | - |
| 1777997740 | 25.56° C | 52% | 1018.2 hPa | 0 mm | 1.79 m/s, 269° | - | - |
| 1777997440 | 26.11° C | 52% | 1018.2 hPa | 0 mm | 1.34 m/s, 257° | - | - |
| 1777997140 | 26.11° C | 52% | 1018.3 hPa | 0 mm | 1.34 m/s, 279° | - | - |
| 1777996840 | 26.11° C | 51% | 1018.2 hPa | 0 mm | 1.79 m/s, 276° | - | - |
| 1777996540 | 26.11° C | 51% | 1018.2 hPa | 0 mm | 1.34 m/s, 271° | - | - |
| 1777996240 | 26.11° C | 52% | 1018.3 hPa | 0 mm | 1.34 m/s, 283° | - | - |
| 1777995940 | 26.11° C | 51% | 1018.2 hPa | 0 mm | 1.34 m/s, 268° | - | - |
| 1777995640 | 26.67° C | 52% | 1018.1 hPa | 0 mm | 1.34 m/s, 280° | - | - |
| 1777995340 | 26.11° C | 53% | 1018 hPa | 0 mm | 1.34 m/s, 263° | - | - |
| 1777995040 | 26.11° C | 54% | 1018 hPa | 0 mm | 0.89 m/s, 267° | - | - |
| 1777994740 | 26.11° C | 52% | 1018.1 hPa | 0 mm | 1.79 m/s, 256° | - | - |
| 1777994440 | 26.11° C | 53% | 1018.2 hPa | 0 mm | 0.89 m/s, 283° | - | - |
| 1777994140 | 26.11° C | 53% | 1018.1 hPa | 0 mm | 0.89 m/s, 259° | - | - |
| 1777993840 | 25.56° C | 53% | 1018 hPa | 0 mm | 1.34 m/s, 262° | - | - |
| 1777993540 | 25.56° C | 53% | 1018 hPa | 0 mm | 1.34 m/s, 285° | - | - |
| 1777993240 | 25.56° C | 54% | 1018 hPa | 0 mm | 1.34 m/s, 261° | - | - |
| 1777992940 | 25.56° C | 52% | 1018 hPa | 0 mm | 1.34 m/s, 294° | - | - |
| 1777992640 | 25.56° C | 51% | 1018 hPa | 0 mm | 1.34 m/s, 255° | - | - |
| 1777992340 | 25.56° C | 51% | 1017.9 hPa | 0 mm | 1.34 m/s, 251° | - | - |
| 1777992040 | 25.56° C | 53% | 1017.9 hPa | 0 mm | 1.34 m/s, 253° | - | - |
| 1777991740 | 25° C | 55% | 1017.9 hPa | 0 mm | 0.45 m/s, 255° | - | - |
* Rain latest hour (hover to see other rain measurements)
** Current wind speed in m/s (hover to see current wind gust speed)